sat.trackr.live / text

‹ back to catalog

STARLINK-30401

NORAD 57818 · 2023-138L

PAYLOAD ACTIVE UNKNOWN

§ Identity

Operator
Country
US
Launch date
2023-09-09
Launch site
AFETR
Launch vehicle
Mass (kg)
RCS (m²)

Purposes: comms

External: N2YO · Heavens-Above · Gunter

§ Orbital elements

Epoch: 2026-09-20T22:16:33.824064Z

Period
94.27 min
Inclination
43.0027°
Eccentricity
0.0001502
Mean motion
15.27576174 rev/d
Perigee alt
482.0 km
Apogee alt
484.1 km
Semi-major
6,861.2 km
B*
1.1430e-5
RAAN
211.9012°
Arg perigee
265.1378°
Mean anomaly
94.9302°
Rev number
16,849

§ Raw data

STARLINK-304011 57818U 23138L   26263.92816926  .00000052  00000+0  11430-4 0  99972 57818  43.0027 211.9012 0001502 265.1378  94.9302 15.27576174168493

JSON: /api/v1/satellites/57818 · /tle

For live sub-satellite position, see the globe view (requires WebGL).

§ Visibility from observer

Set your observer location to see the next 7 days of passes ≥ 10°. The values pass through the URL so the page stays shareable.

No JS? Fill the form by hand. The geolocation button needs JavaScript.